Location: Tuttlingen
(47.9853°N, 8.8165°E)
Time: 00:35:55
(UTC+02:00)

ISS - Visible Passes

Search period start: 22 October 2019 00:00
Search period end: 31 October 2019 23:00
Orbit: 411 x 421 km, 51.6° (Epoch: 21 October)

Date Brightness Start Highest point End Pass type
(mag) Time Alt. Az. Time Alt. Az. Time Alt. Az.
24 Oct -0.8 06:49:34 10° S 06:51:31 15° SE 06:53:28 10° E visible
26 Oct -2.1 06:47:40 10° SSW 06:50:43 32° SE 06:53:45 10° E visible
27 Oct -1.5 05:00:46 16° S 05:02:14 21° SE 05:04:52 10° E visible
28 Oct -0.7 04:14:37 13° ESE 04:14:37 13° ESE 04:15:34 10° ESE visible
28 Oct -3.5 05:47:32 17° SW 05:50:02 69° SSE 05:53:24 10° ENE visible
29 Oct -3.0 05:01:15 45° SSE 05:01:27 45° SSE 05:04:42 10° ENE visible
30 Oct -0.8 04:14:49 17° E 04:14:49 17° E 04:15:54 10° E visible
30 Oct -3.7 05:47:44 26° W 05:49:28 67° NNW 05:52:50 10° ENE visible
31 Oct -3.5 05:01:13 65° ENE 05:01:13 65° ENE 05:04:10 10° ENE visible
31 Oct -3.1 06:34:30 10° WNW 06:37:45 43° N 06:40:59 10° ENE visible
